Temp
74 73 74 76 76 76 76 76 76 76 75 75 76 75 76 76 76 76 76 75 75 76 75 75 75 75 74 74 73 73 73 72 72 73 74 75 76 75 74 73 73 72 73
76 75 74 75 76 76 76 76 75 75 75 76 75 76 76 76 76 75 75 75 75 75 75 75 74 74 74 73 73 72 72 72 71 72 72 74 74 75 75 73 73 72 74
75 76 75 74 75 75 75 75 75 75 75 75 75 76 76 76 75 75 75 75 74 75 75 75 74 74 73 72 72 72 72 71 71 71 71 69 69 75 75 75 74 74 74
78 75 75 72 75 75 75 74 74 75 75 75 75 76 75 75 75 74 75 75 75 75 75 74 73 73 72 72 72 72 72 71 71 70 69 73 73 75 75 75 75 74 73
78 77 75 72 74 74 74 74 74 75 75 75 75 75 75 75 74 74 75 74 74 75 74 74 73 73 72 72 72 72 71 71 70 70 70 69 68 74 75 74 74 74 72
78 78 70 72 74 74 74 74 74 74 74 75 75 75 76 75 73 73 73 73 73 74 74 73 73 72 72 72 71 71 71 71 70 73 73 73 68 74 75 75 73 72 72
77 73 72 72 73 73 74 74 74 74 74 74 75 75 74 73 72 72 72 72 72 73 73 72 72 71 71 71 70 70 69 68 69 72 73 69 67 74 74 74 73 73 72
77 74 72 69 70 71 73 73 73 73 74 73 74 74 73 72 72 72 72 72 72 72 72 72 71 71 70 70 69 69 68 67 71 70 70 67 69 74 74 73 72 72 71
77 75 73 71 70 68 69 70 71 72 72 72 73 73 71 71 71 71 71 71 72 71 71 71 70 70 70 69 68 67 66 66 68 69 72 65 69 73 73 73 72 71 71
74 72 73 73 71 70 68 67 68 69 70 70 69 68 67 67 67 67 67 69 71 70 70 70 69 69 69 68 68 67 65 65 67 65 65 65 71 73 73 72 71 71 70
73 72 73 73 71 72 70 65 65 66 66 65 65 64 63 66 66 65 65 67 69 69 69 69 69 69 68 66 67 67 66 67 64 64 63 67 71 73 72 71 70 69 68
68 72 71 73 72 71 71 68 68 68 66 66 65 63 66 67 66 69 62 64 66 66 68 69 69 68 66 64 64 66 65 64 61 63 63 68 71 71 70 69 69 68 67
67 70 72 70 71 69 68 67 67 67 65 65 65 65 66 67 65 64 62 62 61 60 67 67 66 65 64 63 63 63 64 63 61 60 60 65 69 69 69 68 67 67 66
66 69 71 72 70 70 69 68 70 69 65 64 65 67 65 64 64 65 68 67 65 66 67 64 62 63 63 64 63 62 61 61 58 57 57 60 65 67 67 67 67 66 65
66 67 70 70 71 72 71 71 69 66 66 66 66 67 67 65 64 69 68 68 67 64 62 62 61 61 61 61 61 60 59 59 56 55 55 56 60 63 65 65 66 65 65
68 68 67 73 71 69 67 67 67 66 67 66 66 66 68 67 66 68 67 66 62 61 61 60 60 59 58 59 58 58 56 56 57 54 53 53 56 58 61 62 63 63 63
71 69 68 71 74 69 67 67 66 66 68 68 70 68 68 70 68 67 65 60 58 59 61 60 60 59 58 59 55 54 53 53 54 55 54 51 49 53 55 57 59 59 60
71 67 70 71 72 69 67 66 67 67 68 67 69 69 67 65 65 60 60 58 58 59 58 57 57 57 55 53 52 52 52 53 54 54 54 53 49 48 50 53 54 55 56
72 67 67 69 70 69 67 67 66 65 63 65 67 66 65 63 61 58 57 59 60 57 56 57 53 54 51 50 51 50 50 51 53 54 52 51 48 46 45 51 50 51 52
72 68 66 68 69 70 67 65 62 61 60 62 60 60 61 60 59 56 56 56 57 54 52 52 50 51 51 51 52 50 50 52 52 51 47 49 46 45 43 43 40 43 49
71 69 66 66 67 69 67 60 58 56 57 56 53 55 56 57 57 55 53 54 52 51 51 52 50 49 47 49 47 48 50 52 49 47 45 44 44 43 42 40 39 38 40
68 69 65 65 67 68 68 62 58 57 56 51 50 51 52 53 53 53 52 51 51 49 48 49 49 46 46 48 47 47 43 43 45 47 44 45 42 42 41 41 39 39 36
67 68 65 65 66 68 67 62 56 54 52 48 47 47 49 50 49 49 49 48 47 47 45 46 48 47 44 47 47 46 42 39 41 45 42 42 41 40 39 40 40 39 38
66 68 65 66 66 67 65 59 54 53 50 49 47 46 44 45 46 46 46 46 45 45 45 46 47 47 49 44 45 48 44 42 38 36 42 41 41 42 39 39 37 38 37
65 66 66 64 66 66 64 57 55 53 51 48 44 42 40 41 42 43 43 43 44 44 44 44 43 43 43 42 41 42 41 39 39 36 33 36 39 40 40 38 36 35 37
65 65 65 64 64 64 59 57 57 50 46 43 41 39 38 38 39 40 41 41 41 41 41 41 41 41 41 40 39 38 36 36 33 34 32 33 32 36 37 37 35 34 34
MSLP
1012.59 1013.27 1013.82 1014.34 1014.80 1015.22 1015.65 1015.98 1016.30 1016.60 1016.94 1017.24 1017.39 1017.67 1017.70 1017.92 1018.06 1018.25 1018.43 1018.61 1018.73 1018.76 1018.93 1019.06 1019.15 1019.24 1019.29 1019.38 1019.43 1019.48 1019.52 1019.50 1019.42 1019.34 1019.19 1019.06 1018.99 1019.03 1019.10 1019.12 1019.03 1019.08 1019.01
1012.16 1013.18 1013.78 1014.22 1014.68 1015.12 1015.63 1016.03 1016.40 1016.73 1017.11 1017.26 1017.62 1017.79 1018.00 1018.12 1018.39 1018.67 1018.78 1018.90 1019.01 1019.13 1019.24 1019.37 1019.44 1019.53 1019.66 1019.76 1019.79 1019.81 1019.81 1019.73 1019.58 1019.52 1019.52 1019.34 1019.23 1019.20 1019.25 1019.28 1019.24 1019.18 1019.14
1012.36 1013.19 1013.83 1014.32 1014.73 1015.17 1015.62 1016.07 1016.45 1016.81 1017.19 1017.45 1017.75 1017.92 1018.19 1018.40 1018.64 1018.84 1019.01 1019.07 1019.13 1019.21 1019.41 1019.53 1019.72 1019.87 1020.02 1020.06 1020.05 1020.04 1020.00 1019.87 1019.70 1019.53 1019.32 1019.47 1019.40 1019.42 1019.36 1019.34 1019.33 1019.34 1019.28
1012.21 1013.24 1013.85 1014.40 1014.83 1015.24 1015.70 1016.13 1016.49 1016.84 1017.24 1017.55 1017.85 1018.05 1018.41 1018.64 1018.87 1019.07 1019.16 1019.17 1019.37 1019.53 1019.71 1019.87 1020.05 1020.17 1020.23 1020.26 1020.25 1020.23 1020.18 1020.01 1019.81 1019.69 1019.60 1019.37 1019.48 1019.55 1019.56 1019.47 1019.36 1019.39 1019.41
1012.20 1013.10 1013.69 1014.44 1014.85 1015.23 1015.72 1016.19 1016.61 1016.98 1017.38 1017.69 1017.99 1018.28 1018.57 1018.81 1019.16 1019.35 1019.36 1019.57 1019.68 1019.78 1019.93 1020.09 1020.24 1020.35 1020.43 1020.44 1020.43 1020.41 1020.31 1020.11 1019.99 1019.72 1019.58 1019.63 1019.72 1019.73 1019.58 1019.57 1019.55 1019.45 1019.44
1012.26 1012.84 1013.82 1014.38 1014.88 1015.30 1015.75 1016.15 1016.64 1017.14 1017.48 1017.83 1018.17 1018.47 1018.67 1019.00 1019.35 1019.59 1019.71 1019.86 1019.95 1020.03 1020.11 1020.30 1020.42 1020.50 1020.55 1020.57 1020.59 1020.52 1020.34 1020.13 1019.98 1019.68 1019.68 1019.75 1019.99 1019.80 1019.50 1019.51 1019.60 1019.57 1019.42
1012.36 1013.08 1013.94 1014.48 1014.89 1015.32 1015.75 1016.17 1016.58 1017.00 1017.51 1017.90 1018.23 1018.58 1018.90 1019.29 1019.59 1019.80 1019.96 1020.10 1020.22 1020.33 1020.40 1020.46 1020.53 1020.63 1020.73 1020.76 1020.73 1020.66 1020.49 1020.35 1020.17 1019.88 1019.80 1020.26 1020.19 1019.82 1019.70 1019.75 1019.83 1019.83 1019.77
1012.28 1013.16 1013.89 1014.56 1014.90 1015.29 1015.75 1016.27 1016.66 1017.01 1017.38 1017.86 1018.21 1018.58 1018.99 1019.41 1019.70 1019.92 1020.10 1020.26 1020.37 1020.51 1020.59 1020.65 1020.73 1020.83 1020.88 1020.89 1020.89 1020.79 1020.53 1020.45 1020.21 1020.02 1020.25 1020.46 1020.39 1020.00 1019.95 1020.08 1020.16 1020.20 1020.20
1012.21 1012.92 1013.90 1014.49 1014.93 1015.22 1015.67 1016.26 1016.75 1017.15 1017.50 1017.90 1018.29 1018.66 1018.96 1019.43 1019.72 1019.98 1020.20 1020.32 1020.45 1020.60 1020.74 1020.83 1020.91 1020.95 1020.95 1020.97 1020.99 1020.90 1020.65 1020.48 1020.40 1020.43 1020.53 1020.84 1020.57 1020.33 1020.35 1020.46 1020.54 1020.58 1020.68
1012.62 1013.21 1013.67 1014.16 1014.71 1015.24 1015.70 1016.21 1016.69 1017.24 1017.63 1018.00 1018.37 1018.78 1019.23 1019.59 1019.87 1020.07 1020.27 1020.47 1020.63 1020.74 1020.83 1020.95 1021.02 1021.08 1021.12 1021.17 1021.06 1021.06 1020.93 1020.83 1021.03 1021.21 1021.30 1021.03 1020.74 1020.68 1020.79 1020.95 1021.12 1021.14 1021.24
1012.62 1013.29 1013.67 1014.07 1014.60 1015.04 1015.73 1016.40 1016.83 1017.28 1017.71 1018.16 1018.65 1018.99 1019.32 1019.57 1019.86 1020.14 1020.28 1020.50 1020.70 1020.84 1020.93 1020.98 1021.03 1021.08 1021.25 1021.29 1021.03 1021.01 1021.01 1021.42 1021.77 1022.07 1022.07 1021.47 1021.10 1021.09 1021.18 1021.43 1021.63 1021.72 1021.92
1012.68 1013.14 1013.69 1014.03 1014.37 1015.03 1015.72 1016.50 1017.00 1017.38 1017.77 1018.12 1018.56 1019.05 1019.18 1019.32 1019.66 1019.89 1020.33 1020.52 1020.66 1020.79 1020.85 1020.85 1020.89 1021.02 1021.03 1021.35 1021.33 1021.26 1021.43 1021.94 1022.56 1022.77 1022.56 1021.73 1021.49 1021.67 1021.82 1021.98 1022.11 1022.34 1022.53
1012.78 1012.92 1013.54 1014.06 1014.39 1015.04 1015.73 1016.25 1016.89 1017.30 1017.65 1018.01 1018.38 1018.71 1018.81 1019.11 1019.56 1019.89 1020.30 1020.56 1020.69 1020.82 1020.79 1020.97 1021.04 1021.33 1021.44 1021.55 1021.75 1021.87 1021.99 1022.54 1023.23 1023.63 1023.43 1022.66 1022.29 1022.32 1022.38 1022.58 1022.77 1022.92 1023.05
1012.68 1012.76 1013.00 1013.72 1014.48 1014.93 1015.56 1016.01 1016.23 1016.76 1017.23 1017.68 1018.11 1018.37 1018.58 1018.95 1019.32 1019.57 1019.66 1019.99 1020.38 1020.49 1020.58 1020.86 1021.33 1021.56 1021.72 1021.92 1022.17 1022.46 1022.65 1023.10 1023.94 1024.46 1024.42 1023.80 1023.37 1023.19 1023.24 1023.33 1023.38 1023.51 1023.64
1012.15 1012.70 1012.79 1013.33 1014.08 1014.55 1015.10 1015.38 1015.78 1016.34 1016.77 1017.24 1017.73 1018.03 1018.34 1018.72 1019.02 1018.91 1019.34 1019.77 1020.12 1020.51 1020.80 1021.09 1021.47 1021.79 1022.11 1022.30 1022.62 1022.97 1023.26 1023.62 1024.42 1024.99 1025.29 1025.00 1024.63 1024.30 1024.16 1024.16 1024.06 1023.96 1024.16
1011.58 1012.07 1012.49 1012.96 1013.62 1014.20 1014.96 1015.34 1015.72 1016.04 1016.51 1017.02 1017.47 1017.88 1018.08 1018.33 1018.61 1018.82 1019.36 1019.87 1020.48 1020.78 1021.01 1021.34 1021.64 1021.97 1022.40 1022.74 1023.17 1023.49 1023.88 1024.20 1024.59 1025.17 1025.67 1025.80 1025.64 1025.50 1025.27 1025.10 1024.91 1024.82 1024.85
1010.85 1011.89 1012.33 1012.72 1013.27 1013.90 1014.41 1014.92 1015.47 1015.98 1016.33 1016.69 1017.01 1017.53 1017.83 1017.94 1018.30 1018.87 1019.46 1020.34 1020.76 1021.01 1021.12 1021.42 1021.70 1022.07 1022.65 1023.09 1023.85 1024.42 1024.75 1024.98 1025.12 1025.31 1025.74 1026.19 1026.55 1026.51 1026.44 1026.26 1025.94 1025.75 1025.56
1010.16 1011.25 1012.22 1012.66 1013.13 1013.73 1014.36 1014.43 1014.92 1015.52 1015.97 1016.49 1016.84 1017.15 1017.66 1018.14 1018.60 1019.37 1019.94 1020.50 1020.95 1021.06 1021.21 1021.65 1021.93 1022.41 1023.05 1023.74 1024.53 1025.08 1025.36 1025.49 1025.51 1025.68 1026.06 1026.37 1026.86 1027.21 1027.20 1027.34 1027.16 1026.93 1026.69
1009.44 1010.50 1011.53 1012.44 1012.85 1013.52 1014.22 1014.47 1014.75 1015.23 1015.90 1016.38 1016.81 1017.34 1017.83 1018.43 1018.96 1019.59 1020.20 1020.52 1020.90 1021.23 1021.53 1021.85 1022.54 1022.77 1023.60 1024.33 1024.93 1025.46 1025.56 1025.61 1025.79 1026.17 1026.64 1026.99 1027.37 1027.67 1027.72 1027.72 1028.04 1027.95 1027.72
1008.91 1009.95 1010.99 1011.97 1012.57 1013.13 1013.86 1014.58 1015.09 1015.59 1016.25 1016.67 1017.26 1017.67 1018.13 1018.72 1019.31 1019.78 1020.14 1020.62 1020.95 1021.53 1022.15 1022.56 1023.04 1023.47 1023.93 1024.55 1025.15 1025.66 1025.79 1025.69 1025.92 1026.41 1026.99 1027.46 1027.88 1028.18 1028.34 1028.54 1028.54 1028.57 1028.42
1008.67 1009.28 1010.33 1011.23 1012.10 1012.72 1013.38 1014.41 1015.21 1015.95 1016.83 1017.55 1018.10 1018.22 1018.54 1018.98 1019.29 1019.81 1020.34 1020.88 1021.30 1021.88 1022.47 1022.88 1023.48 1023.96 1024.73 1024.99 1025.26 1025.93 1025.93 1025.96 1026.25 1026.64 1027.03 1027.79 1028.20 1028.46 1028.66 1029.03 1029.15 1029.16 1029.33
1008.08 1008.64 1009.66 1010.52 1011.47 1012.13 1012.70 1013.97 1014.89 1015.82 1016.95 1018.16 1018.63 1019.06 1019.17 1019.29 1019.69 1020.16 1020.70 1021.28 1021.78 1022.30 1022.79 1023.15 1023.44 1024.19 1024.94 1025.13 1025.18 1025.47 1026.13 1026.69 1026.73 1026.96 1027.07 1027.55 1028.29 1028.61 1028.88 1029.19 1029.41 1029.46 1029.59
1007.40 1008.09 1008.97 1009.55 1010.66 1011.39 1012.20 1013.49 1014.94 1016.11 1017.53 1018.69 1019.21 1019.49 1019.91 1019.88 1020.43 1020.80 1021.27 1021.73 1022.28 1022.64 1023.06 1023.37 1023.53 1023.85 1024.53 1025.10 1025.09 1025.34 1025.61 1026.25 1026.86 1027.33 1027.57 1027.54 1028.07 1028.67 1029.06 1029.31 1029.64 1029.81 1029.84
1006.80 1007.69 1008.49 1009.21 1010.23 1011.02 1011.71 1012.92 1014.11 1015.43 1016.84 1018.09 1019.19 1019.86 1020.37 1020.68 1021.20 1021.68 1022.00 1022.50 1022.79 1023.04 1023.37 1023.63 1024.03 1024.09 1024.33 1025.10 1025.43 1025.73 1025.73 1025.90 1026.61 1027.60 1027.79 1027.85 1028.06 1028.63 1028.92 1029.36 1029.76 1029.92 1030.06
1006.12 1007.13 1008.04 1008.84 1009.62 1010.41 1011.28 1012.55 1013.73 1015.22 1016.47 1017.86 1019.32 1020.24 1020.98 1021.42 1021.90 1022.46 1022.76 1023.22 1023.42 1023.68 1023.89 1024.07 1024.51 1024.76 1025.29 1025.74 1026.04 1026.29 1026.29 1026.56 1026.61 1027.06 1028.03 1028.26 1028.46 1028.74 1028.90 1029.27 1029.79 1030.03 1030.19
1005.80 1006.54 1007.41 1008.22 1009.00 1009.85 1011.00 1012.51 1013.23 1014.62 1016.14 1017.86 1019.31 1020.40 1021.52 1022.09 1022.56 1023.08 1023.29 1023.96 1024.28 1024.39 1024.59 1025.14 1025.36 1025.46 1026.27 1026.44 1026.75 1026.99 1027.15 1027.59 1028.02 1027.95 1028.41 1028.80 1028.88 1029.02 1029.01 1029.21 1029.78 1030.26 1030.37
Wind_Speed
13 14 18 18 18 17 16 15 14 12 13 12 13 12 12 12 12 12 11 14 12 13 13 13 13 13 14 14 13 13 12 11 9 8 11 13 14 14 13 13 13 7 10
18 15 18 18 17 18 17 16 15 13 13 13 13 12 12 12 12 12 11 11 12 12 12 12 12 12 13 13 12 11 11 9 6 5 3 5 13 12 12 11 10 8 10
17 15 13 15 15 17 17 15 15 13 13 13 13 12 12 12 11 12 11 9 10 13 12 12 12 12 11 11 11 10 9 7 6 9 10 2 6 11 11 10 10 11 11
16 15 13 12 14 14 17 16 16 14 14 14 13 13 12 11 11 11 9 9 12 11 12 11 11 11 10 10 10 9 8 7 8 9 3 6 6 11 9 9 10 9 10
15 14 14 13 13 14 17 16 15 15 13 14 13 13 12 11 11 10 10 12 11 12 13 13 12 11 10 10 9 8 8 8 9 9 5 5 6 9 9 8 8 9 7
13 12 17 15 14 13 16 16 16 15 14 13 13 12 12 12 11 10 11 11 11 12 12 11 10 10 9 9 8 8 8 10 12 4 6 6 6 11 11 7 11 12 11
10 14 12 13 14 13 13 15 16 16 14 13 13 12 12 11 11 11 11 10 10 10 9 9 9 8 8 7 7 7 7 9 6 3 4 8 6 12 16 16 15 14 15
11 13 12 11 10 12 12 14 16 15 15 13 12 12 13 11 11 11 10 10 9 9 8 8 7 6 7 7 7 7 8 8 8 5 8 7 12 11 16 17 17 18 18
9 11 10 9 9 11 12 13 14 14 13 13 13 12 13 10 10 10 9 9 9 8 7 7 6 6 7 6 5 6 9 10 7 7 9 5 9 16 18 19 19 19 21
9 7 7 7 9 9 9 14 13 12 11 11 11 12 11 10 10 9 9 7 7 7 6 6 6 5 5 5 3 5 7 9 13 10 8 4 13 18 18 19 19 19 23
7 10 8 8 9 11 10 9 12 12 12 12 10 10 9 5 6 7 7 8 7 5 6 6 3 2 4 2 4 7 6 8 10 7 6 10 15 16 16 17 19 21 23
8 11 10 7 9 10 9 9 9 9 6 6 6 6 5 6 5 6 7 7 6 6 7 6 3 4 6 3 2 6 4 10 7 7 6 12 16 18 20 21 21 22 22
6 6 12 10 10 11 9 7 4 4 4 4 7 6 5 5 5 4 4 3 4 5 3 3 5 4 6 5 5 5 7 8 7 7 12 18 20 20 21 21 21 21 21
10 7 8 13 11 9 8 7 8 6 4 4 6 7 4 4 5 4 5 5 4 3 3 5 4 5 6 7 7 8 8 8 7 6 13 20 21 21 21 20 20 20 19
16 11 9 8 11 10 8 5 6 5 5 5 5 6 5 4 5 4 5 4 4 4 4 4 5 5 6 6 8 7 7 7 11 7 7 21 22 21 19 19 19 18 18
17 15 7 12 9 7 6 5 5 5 5 5 5 5 6 5 5 5 5 5 4 4 3 5 4 5 5 6 7 8 9 9 9 10 7 10 22 21 20 20 19 19 18
14 16 10 8 11 9 8 7 5 5 5 5 6 7 6 4 5 6 6 5 4 1 5 5 4 4 6 7 9 9 7 8 7 7 7 7 10 20 20 20 19 18 18
14 16 15 9 11 9 7 6 5 5 5 3 4 4 5 7 8 6 5 5 3 2 4 4 3 4 5 7 7 7 5 6 6 8 8 7 6 6 13 19 19 19 19
16 18 18 14 12 11 7 5 6 6 5 4 4 5 7 7 7 6 4 5 4 3 4 4 5 4 7 6 7 5 4 3 5 7 9 8 8 6 4 13 17 17 17
14 18 17 15 12 12 7 5 5 6 5 5 4 4 7 5 7 6 5 5 5 5 5 5 6 6 6 6 7 5 2 3 4 5 6 7 6 7 6 7 6 6 15
14 18 19 19 14 11 10 8 6 6 6 5 4 7 6 6 6 6 5 6 5 5 5 7 5 8 5 4 4 2 2 4 5 5 5 5 6 6 7 5 4 4 5
16 16 19 19 17 14 11 8 4 7 5 5 4 6 6 7 7 7 7 7 7 6 7 5 4 3 3 1 1 2 3 1 4 4 5 5 6 5 5 6 6 6 5
17 17 19 20 19 16 14 10 8 8 7 4 4 5 6 9 9 9 9 8 7 6 5 4 4 5 4 3 5 1 3 2 4 2 3 4 6 4 4 5 5 5 5
18 16 16 18 19 16 17 13 17 9 8 4 5 7 7 10 10 9 10 8 7 6 7 6 5 4 4 5 3 4 4 3 3 3 1 3 5 5 5 4 5 5 5
19 16 17 18 19 17 16 16 13 10 7 9 8 11 10 10 10 10 10 9 9 7 9 9 9 10 7 5 4 2 3 4 4 3 3 1 3 3 4 5 4 4 4
18 17 18 21 19 17 17 16 15 16 15 12 10 9 7 7 8 10 11 10 9 8 9 8 10 12 7 6 5 6 4 3 3 4 4 3 1 1 3 4 4 4 3
Wind_Direction
140 144 155 155 155 150 142 140 135 125 121 127 110 114 109 106 102 96 91 86 81 83 78 74 73 72 67 67 65 62 57 51 45 52 51 66 58 55 49 39 33 37 35
130 147 153 155 158 154 146 146 135 128 134 131 123 120 115 111 100 100 95 91 87 88 85 79 76 72 69 66 64 60 53 44 20 10 18 67 64 54 51 43 39 33 30
133 142 151 155 157 156 148 147 138 139 142 134 132 122 120 114 108 101 97 108 94 88 81 81 76 74 68 64 60 55 48 27 357 340 332 103 83 46 42 38 36 30 22
138 144 151 156 158 156 149 151 145 145 146 141 138 131 126 118 114 102 111 97 84 87 84 79 78 75 70 65 58 50 34 1 337 323 310 7 65 41 22 17 26 24 14
138 155 145 155 158 154 152 153 149 140 146 145 142 134 131 123 107 109 103 92 94 93 88 85 82 76 68 59 49 35 11 340 328 318 97 44 30 19 10 9 1 357 352
139 153 143 154 158 157 161 157 150 144 147 148 142 139 137 123 112 107 97 98 97 93 85 77 73 69 62 55 44 27 0 338 330 28 29 67 47 3 353 18 16 24 32
152 122 140 149 156 160 161 162 151 147 148 150 148 148 129 122 121 116 111 106 98 92 88 82 74 67 58 53 41 18 347 334 326 10 35 53 22 14 57 62 57 47 49
134 135 140 154 164 163 165 162 153 150 149 150 149 140 136 133 130 124 118 111 106 100 90 80 70 61 59 52 34 5 329 330 330 48 60 44 8 45 65 63 60 57 55
131 132 143 161 183 169 155 153 149 148 146 146 148 161 121 131 129 121 117 119 111 101 88 78 76 82 78 62 31 343 337 337 336 37 46 31 3 62 68 66 63 62 64
129 131 143 150 158 162 153 146 141 141 136 138 125 114 121 123 122 127 125 110 109 104 98 92 85 91 92 68 36 358 334 326 48 36 20 21 71 69 66 65 65 65 65
152 141 147 154 153 148 139 134 127 128 126 120 120 131 141 151 162 154 123 121 119 121 119 112 113 101 139 145 51 8 16 60 54 36 16 10 63 62 62 64 69 67 63
169 154 152 165 144 133 134 137 135 139 143 146 145 164 189 159 141 152 130 142 157 156 156 158 113 25 33 142 47 42 66 78 58 38 14 37 61 66 71 67 66 61 56
201 184 160 151 145 143 144 145 152 158 158 155 152 182 215 124 134 142 144 169 179 187 185 168 72 53 55 44 44 34 64 81 65 45 21 43 65 67 67 65 62 62 59
202 190 171 155 149 158 151 169 165 164 161 147 156 194 152 137 165 186 176 178 164 143 108 89 89 69 61 63 63 55 57 82 76 56 35 41 53 60 59 62 62 60 58
179 213 176 165 155 169 158 182 155 163 146 159 153 183 153 175 181 178 103 99 100 79 58 79 89 87 74 67 65 67 62 84 96 81 58 49 52 55 55 54 54 51 54
173 194 202 171 159 153 156 187 154 140 158 164 147 180 183 182 179 118 117 98 91 93 96 83 95 99 98 83 69 58 50 50 87 94 82 62 60 55 54 53 52 49 46
173 178 194 177 169 163 168 170 149 158 171 173 162 170 202 208 106 109 111 96 79 84 112 102 89 102 95 92 80 67 57 47 59 96 109 91 71 60 57 54 52 50 46
169 168 181 191 180 162 173 158 154 162 146 159 136 147 129 89 96 91 91 102 131 115 91 92 100 93 97 83 78 68 70 73 72 66 62 67 80 79 62 57 53 48 44
180 168 174 193 185 169 168 166 162 137 114 113 122 111 109 105 105 109 118 111 130 99 82 99 54 76 97 90 90 86 88 102 94 92 84 74 68 63 50 60 58 49 45
183 168 170 184 191 176 162 154 105 102 97 78 67 94 101 98 101 107 107 111 107 91 76 73 87 62 92 102 104 102 121 114 101 101 94 82 74 67 59 51 39 28 43
191 169 176 178 191 184 169 141 130 127 113 85 66 66 88 102 102 105 102 91 79 86 96 101 97 91 67 104 112 86 94 90 96 95 103 99 91 82 72 61 48 37 32
191 177 173 176 186 191 173 154 131 135 106 111 92 74 73 82 82 90 91 87 86 95 82 79 107 115 95 179 137 155 155 96 56 88 95 105 105 100 92 79 62 49 46
192 189 178 177 188 186 169 139 113 95 98 97 111 96 78 82 78 87 90 97 93 95 98 90 102 122 137 82 70 132 168 141 135 96 93 105 115 106 103 95 82 59 43
192 194 178 178 189 183 159 150 151 157 152 139 127 105 87 77 78 80 84 86 91 96 92 77 51 57 124 118 85 57 71 103 150 140 143 139 125 116 107 82 74 66 47
188 189 188 183 191 178 168 152 155 150 126 120 118 105 92 83 79 79 82 82 78 74 70 78 70 63 61 71 54 27 63 46 37 96 147 154 68 107 114 115 102 74 51
190 190 191 185 184 173 152 159 163 140 138 132 132 119 108 97 92 81 80 74 72 76 76 67 65 65 76 76 68 58 58 56 27 47 72 55 113 173 138 116 104 88 69